Arlington, WA
on Friday, November 16, 2012

Friday
Previous Day Next Day
Daily Summary
 ActualAverageRecord
Temperature
Mean Temperature °F °F  
Max Temperature 50°F 56°F 57°F (1997)
Min Temperature 28°F 45°F 19°F (2000)
Degree Days
Heating Degree Days 26    
Moisture
Dew Point 36°F   
Average Humidity 89    
Maximum Humidity 100    
Minimum Humidity 66    
Precipitation
Precipitation 0.02 in in in ()
Wind
Wind Speed 1 mph   
Max Wind Speed 13 mph   
Max Gust Speed 18 mph   
Visibility 8 miles   
Events     
Averages and records for this station are not official NWS values.
Key: T is trace of precipitation, MM is missing value
Source: NWS Daily Summary
Seasonal Weather Averages
Time(PST)TemperatureDew PointHumidity Pressure Visibility Wind DirectionWind SpeedGust SpeedPrecipitationEvents Conditions
12:15 AM 32.0°F 28.4°F 87% 29.96 in 0.5 miles Calm Calm - N/A   Overcast
12:35 AM 30.2°F 28.4°F 93% 29.96 in 0.2 miles Calm Calm - N/A   Overcast
12:55 AM 30.2°F 28.4°F 93% 29.96 in 0.2 miles Calm Calm - N/A   Overcast
1:15 AM 30.2°F 28.4°F 93% 29.95 in 0.2 miles Calm Calm - N/A   Overcast
1:35 AM 28.4°F 26.6°F 93% 29.95 in 0.5 miles Calm Calm - N/A   Overcast
1:55 AM 30.2°F 28.4°F 93% 29.95 in 0.2 miles Calm Calm - N/A   Overcast
2:15 AM 28.4°F 26.6°F 93% 29.95 in 0.5 miles Calm Calm - N/A   Overcast
2:35 AM 28.4°F 26.6°F 93% 29.95 in 0.5 miles Calm Calm - N/A   Mostly Cloudy
2:55 AM 30.2°F 28.4°F 93% 29.94 in 1.5 miles Calm Calm - N/A   Scattered Clouds
3:15 AM 28.4°F 26.6°F 93% 29.94 in 1.5 miles Calm Calm - N/A   Mostly Cloudy
3:35 AM 28.4°F 26.6°F 93% 29.94 in 1.5 miles Calm Calm - N/A   Mostly Cloudy
3:55 AM 28.4°F 26.6°F 93% 29.93 in 0.5 miles Calm Calm - N/A   Overcast
4:15 AM 28.4°F 26.6°F 93% 29.93 in 0.5 miles Calm Calm - N/A   Overcast
4:35 AM 28.4°F 26.6°F 93% 29.93 in 0.5 miles Calm Calm - N/A   Overcast
4:55 AM 28.4°F 26.6°F 93% 29.93 in 1.0 miles Calm Calm - N/A   Overcast
5:15 AM 28.4°F 26.6°F 93% 29.93 in 2.5 miles Calm Calm - N/A   Overcast
5:35 AM 30.2°F 28.4°F 93% 29.92 in 9.0 miles Calm Calm - N/A   Overcast
5:55 AM 30.2°F 28.4°F 93% 29.92 in 9.0 miles Calm Calm - N/A   Overcast
6:15 AM 30.2°F 28.4°F 93% 29.92 in 10.0 miles Calm Calm - N/A   Overcast
6:35 AM 32.0°F 30.2°F 93% 29.91 in 10.0 miles Calm Calm - N/A   Overcast
6:55 AM 32.0°F 28.4°F 87% 29.92 in 10.0 miles Calm Calm - N/A   Overcast
7:15 AM 32.0°F 30.2°F 93% 29.92 in 10.0 miles Calm Calm - N/A   Overcast
7:35 AM 30.2°F 28.4°F 93% 29.92 in 10.0 miles Calm Calm - N/A   Mostly Cloudy
7:55 AM 30.2°F 30.2°F 100% 29.92 in 10.0 miles Calm Calm - N/A   Clear
8:15 AM 30.2°F 28.4°F 93% 29.92 in 10.0 miles Calm Calm - N/A   Scattered Clouds
8:35 AM 32.0°F 30.2°F 93% 29.92 in 10.0 miles Calm Calm - N/A   Mostly Cloudy
8:55 AM 35.6°F 33.8°F 93% 29.92 in 10.0 miles Calm Calm - N/A   Partly Cloudy
9:15 AM 37.4°F 35.6°F 93% 29.92 in 10.0 miles Calm Calm - N/A   Scattered Clouds
9:35 AM 39.2°F 35.6°F 87% 29.92 in 10.0 miles Calm Calm - N/A   Mostly Cloudy
9:55 AM 37.4°F 35.6°F 93% 29.92 in 10.0 miles Calm Calm - N/A   Overcast
10:15 AM 39.2°F 37.4°F 93% 29.93 in 10.0 miles Calm Calm - N/A   Overcast
10:35 AM 39.2°F 35.6°F 87% 29.93 in 10.0 miles Calm Calm - N/A   Overcast
10:55 AM 39.2°F 35.6°F 87% 29.93 in 10.0 miles Calm Calm - N/A   Overcast
11:15 AM 39.2°F 35.6°F 87% 29.93 in 10.0 miles Calm Calm - N/A   Overcast
11:35 AM 41.0°F 37.4°F 87% 29.92 in 10.0 miles Calm Calm - N/A   Overcast
11:55 AM 42.8°F 37.4°F 81% 29.91 in 10.0 miles Calm Calm - N/A   Overcast
12:15 PM 44.6°F 37.4°F 76% 29.91 in 10.0 miles Calm Calm - N/A   Overcast
12:35 PM 44.6°F 37.4°F 76% 29.90 in 10.0 miles Calm Calm - N/A   Overcast
12:55 PM 44.6°F 39.2°F 81% 29.90 in 10.0 miles Calm Calm - N/A   Overcast
1:15 PM 44.6°F 37.4°F 76% 29.89 in 10.0 miles Calm Calm - N/A   Overcast
1:35 PM 44.6°F 39.2°F 81% 29.88 in 10.0 miles Calm Calm - N/A   Overcast
1:55 PM 44.6°F 39.2°F 81% 29.87 in 10.0 miles Calm Calm - N/A   Overcast
2:15 PM 46.4°F 39.2°F 76% 29.86 in 10.0 miles Calm Calm - N/A   Overcast
2:35 PM 46.4°F 41.0°F 81% 29.86 in 10.0 miles Calm Calm - N/A   Overcast
2:55 PM 48.2°F 41.0°F 76% 29.84 in 10.0 miles ESE 8.1 mph - N/A   Overcast
3:15 PM 50.0°F 39.2°F 66% 29.84 in 10.0 miles ESE 10.4 mph 16.1 mph N/A   Overcast
3:35 PM 50.0°F 39.2°F 66% 29.84 in 10.0 miles SE 12.7 mph 18.4 mph N/A   Overcast
3:55 PM 48.2°F 41.0°F 76% 29.84 in 10.0 miles SE 10.4 mph - N/A   Overcast
4:15 PM 48.2°F 41.0°F 76% 29.83 in 10.0 miles ESE 6.9 mph - N/A   Overcast
4:35 PM 48.2°F 41.0°F 76% 29.83 in 10.0 miles East 8.1 mph - N/A   Overcast
4:55 PM 48.2°F 41.0°F 76% 29.82 in 10.0 miles East 5.8 mph - N/A   Overcast
5:15 PM 48.2°F 41.0°F 76% 29.81 in 10.0 miles WNW 5.8 mph - N/A   Overcast
5:35 PM 44.6°F 42.8°F 93% 29.81 in 10.0 miles Calm Calm - N/A   Overcast
5:55 PM 46.4°F 42.8°F 87% 29.81 in 8.0 miles Calm Calm - N/A   Overcast
6:15 PM 44.6°F 42.8°F 93% 29.80 in 10.0 miles Calm Calm - N/A   Overcast
6:35 PM 44.6°F 42.8°F 93% 29.80 in 10.0 miles Calm Calm - N/A   Overcast
6:55 PM 44.6°F 42.8°F 93% 29.79 in 8.0 miles Calm Calm - N/A   Overcast
7:15 PM 44.6°F 42.8°F 93% 29.79 in 10.0 miles Calm Calm - N/A   Overcast
7:35 PM 44.6°F 42.8°F 93% 29.77 in 10.0 miles NNE 5.8 mph - N/A   Overcast
7:55 PM 44.6°F 42.8°F 93% 29.78 in 10.0 miles NNE 3.5 mph - N/A   Overcast
8:15 PM 44.6°F 42.8°F 93% 29.76 in 10.0 miles NNE 4.6 mph - 0.01 in   Overcast
8:35 PM 44.6°F 42.8°F 93% 29.76 in 10.0 miles Calm Calm - 0.01 in   Overcast
8:55 PM 44.6°F 44.6°F 100% 29.75 in 10.0 miles Calm Calm - 0.01 in   Overcast
9:15 PM 44.6°F 42.8°F 93% 29.76 in 10.0 miles Calm Calm - N/A   Overcast
9:35 PM 44.6°F 42.8°F 93% 29.76 in 7.0 miles Calm Calm - N/A   Overcast
9:55 PM 44.6°F 42.8°F 93% 29.75 in 7.0 miles Calm Calm - N/A   Overcast
10:15 PM 44.6°F 42.8°F 93% 29.74 in 6.0 miles Calm Calm - 0.01 in   Overcast
10:35 PM 44.6°F 42.8°F 93% 29.74 in 10.0 miles Calm Calm - 0.01 in   Overcast
10:55 PM 44.6°F 44.6°F 100% 29.73 in 9.0 miles Calm Calm - 0.01 in   Overcast
11:15 PM 44.6°F 44.6°F 100% 29.73 in 6.0 miles Calm Calm - N/A   Overcast
11:35 PM 46.4°F 44.6°F 93% 29.72 in 10.0 miles Calm Calm - N/A   Overcast
11:55 PM 46.4°F 44.6°F 93% 29.73 in 10.0 miles Calm Calm - N/A   Overcast
Moon Phase
Nov. 16 Nov. 20 Nov. 28 Dec. 06 Dec. 13
Sunrise:07:17 AM (PST) Moon Rise:10:21 AM (PST)11/16
Sunset:04:28 PM (PST) Moon Set:07:31 PM (PST)11/16

Copyright © 2014 The Weather Underground, Inc.